Flag for Spain Weather past 2 weeks in Almería, Spain

Now
71 °F

Mild.


Feels Like: 76 °F
Forecast: 51 / 75 °F
Wind: 3 mph from Southwest

Location: Almeria / Aeropuerto

Current Time: Mar 29, 2015 at 2:29:42 PM

Latest Report: Mar 29, 2015 at 1:00 PM


Visibility: N/A

Pressure: 30.25 "Hg

Humidity: 57%

Dew point: 55 °F

Location of AlmeríaLocation

Historic Weather in Almería — Graph

°F

Almería temperature yesterday

Maximum temperature yesterday: 68 °F (at 6:00 PM)
Minimum temperature yesterday: 55 °F (at 7:00 AM)
Average temperature yesterday: 62 °F

Past Weeks' High & Low Weather Summary

 TemperatureHumidityPressure
High74 °F (Mar 29, 11:00 AM)96% (Mar 28, 2:00 AM)30.28 "Hg (Mar 28, 2:00 AM)
Low51 °F (Mar 16, 7:00 AM)29% (Mar 25, 4:00 PM)29.55 "Hg (Mar 24, 6:00 AM)
Average58 °F72%29.92 "Hg
* Reported Mar 14 12:00 Noon — Mar 29 1:00 PM, Almería, Weather by CustomWeather, © 2015

Note: Actual official high and low records may vary slightly from our data, if they occured in-between our weather recording intervals... More about our weather records

Advertising

Almería weather history for previous 24 hours

 ConditionsComfort  
Time TempWeatherWind HumidityBarometerVisibility
1:00 PM
Sun, Mar 29
71 °FMild.3 mph57%30.25 "HgN/A
12:00 PM70 °FMild.2 mph61%30.25 "HgN/A
11:00 AM74 °FSunny.2 mph48%30.24 "Hg25 mi
10:00 AM65 °FMild.6 mph74%30.23 "HgN/A
9:00 AM59 °FCool.2 mph86%30.23 "HgN/A
8:00 AM55 °FSunny.No wind91%30.21 "Hg19 mi
7:00 AM56 °FCool.2 mph91%30.21 "HgN/A
6:00 AM56 °FCool.2 mph91%30.21 "HgN/A
4:00 AM58 °FCool.2 mph91%30.23 "HgN/A
3:00 AM58 °FCool.3 mph87%30.24 "HgN/A
1:00 AM59 °FCool.2 mph88%30.25 "HgN/A
12:00 AM59 °FCool.2 mph86%30.25 "HgN/A
11:00 PM
Sat, Mar 28
60 °FCool.1 mph86%30.25 "HgN/A
9:00 PM62 °FCool.1 mph85%30.25 "HgN/A
8:00 PM63 °FMild.5 mph82%30.23 "HgN/A
7:00 PM65 °FMild.6 mph75%30.22 "HgN/A
6:00 PM68 °FMild.5 mph65%30.22 "HgN/A
5:00 PM67 °FMild.2 mph76%30.22 "HgN/A
4:00 PM67 °FSunny.7 mph74%30.22 "Hg31 mi
3:00 PM67 °FMild.6 mph75%30.24 "HgN/A
2:00 PM68 °FMild.2 mph73%30.25 "HgN/A
Weather by CustomWeather, © 2015

See weather overviewHow to use our weather pages